When you browse on this site, cookies collect data to enhance your experience and personalize the content and advertising you see.
Visit our Privacy Policy to learn more. By continuing to use the site, you agree to this use of cookies and data.
  • In Hungary
  • List of Countries
  • For 7 days
  • Water Temperature
  • Satellite Maps
  • Weather Map
  • News
  • Weather Widgets
  • user-avatar
    Login

    Hourly Weather Leba

    Today, 20 June, Thursday

    Time Temperature Precipitation Wind Pressure Humidity
    00:00 +20°C° 0 mm 4 mps 756 mmHg 88%
    01:00 +20°C° 0 mm 4 mps 756 mmHg 89%
    02:00 +20°C° 0 mm 4 mps 755 mmHg 88%
    03:00 +20°C° 0 mm 4 mps 755 mmHg 87%
    04:00 +20°C° 0 mm 3 mps 755 mmHg 85%
    05:00 +21°C° 0 mm 3 mps 755 mmHg 82%
    06:00 +24°C° 0 mm 3 mps 755 mmHg 78%
    07:00 +24°C° 0 mm 3 mps 755 mmHg 79%
    08:00 +27°C° 0 mm 3 mps 755 mmHg 69%
    09:00 +29°C° 0 mm 3 mps 755 mmHg 59%
    10:00 +32°C° 0 mm 4 mps 755 mmHg 48%
    11:00 +30°C° 0.1 mm 4 mps 755 mmHg 52%
    12:00 +29°C° 0.1 mm 5 mps 756 mmHg 55%
    13:00 +28°C° 0 mm 6 mps 756 mmHg 59%
    14:00 +27°C° 0.1 mm 5 mps 756 mmHg 61%
    15:00 +26°C° 0.1 mm 5 mps 756 mmHg 63%
    16:00 +25°C° 0.1 mm 4 mps 756 mmHg 65%
    17:00 +24°C° 0.2 mm 3 mps 756 mmHg 73%
    18:00 +22°C° 0.2 mm 3 mps 757 mmHg 81%
    19:00 +20°C° 0.2 mm 2 mps 757 mmHg 88%
    20:00 +19°C° 0 mm 2 mps 757 mmHg 89%
    21:00 +19°C° 0 mm 2 mps 757 mmHg 90%
    22:00 +18°C° 0 mm 3 mps 757 mmHg 90%
    23:00 +18°C° 0 mm 3 mps 758 mmHg 92%

    Tomorrow, 21 June, Friday

    Time Temperature Precipitation Wind Pressure Humidity
    00:00 +17°C° 0 mm 3 mps 758 mmHg 93%
    01:00 +17°C° 0 mm 3 mps 758 mmHg 94%
    02:00 +17°C° 0 mm 3 mps 758 mmHg 94%
    03:00 +17°C° 0 mm 3 mps 758 mmHg 95%
    04:00 +17°C° 0 mm 3 mps 759 mmHg 95%
    05:00 +18°C° 0 mm 3 mps 759 mmHg 91%
    06:00 +19°C° 0 mm 3 mps 759 mmHg 87%
    07:00 +20°C° 0 mm 2 mps 760 mmHg 83%
    08:00 +21°C° 0 mm 2 mps 760 mmHg 77%
    09:00 +22°C° 0 mm 3 mps 760 mmHg 72%
    10:00 +24°C° 0 mm 3 mps 761 mmHg 66%
    11:00 +24°C° 0 mm 3 mps 761 mmHg 65%
    12:00 +24°C° 0 mm 3 mps 761 mmHg 63%
    13:00 +25°C° 0 mm 3 mps 760 mmHg 61%
    14:00 +24°C° 0 mm 3 mps 760 mmHg 63%
    15:00 +22°C° 0 mm 3 mps 761 mmHg 66%
    16:00 +22°C° 0 mm 3 mps 761 mmHg 69%
    17:00 +21°C° 0 mm 3 mps 761 mmHg 73%
    18:00 +20°C° 0 mm 3 mps 761 mmHg 78%
    19:00 +19°C° 0 mm 3 mps 761 mmHg 82%
    20:00 +18°C° 0 mm 3 mps 762 mmHg 84%
    21:00 +18°C° 0 mm 4 mps 762 mmHg 86%
    22:00 +17°C° 0 mm 4 mps 763 mmHg 88%
    23:00 +15°C° 0 mm 4 mps 763 mmHg 89%

    Day after tomorrow, 22 June, Saturday

    Time Temperature Precipitation Wind Pressure Humidity
    00:00 +14°C° 0 mm 5 mps 763 mmHg 90%
    01:00 +13°C° 0 mm 5 mps 763 mmHg 91%
    02:00 +13°C° 0 mm 5 mps 764 mmHg 90%
    03:00 +13°C° 0 mm 5 mps 764 mmHg 90%
    04:00 +13°C° 0 mm 5 mps 765 mmHg 89%
    05:00 +14°C° 0 mm 5 mps 765 mmHg 82%
    06:00 +15°C° 0 mm 5 mps 765 mmHg 75%
    07:00 +16°C° 0 mm 5 mps 766 mmHg 68%
    08:00 +18°C° 0 mm 4 mps 766 mmHg 65%
    09:00 +19°C° 0 mm 4 mps 766 mmHg 61%
    10:00 +19°C° 0 mm 4 mps 767 mmHg 58%
    11:00 +19°C° 0 mm 4 mps 767 mmHg 56%
    12:00 +20°C° 0 mm 4 mps 767 mmHg 55%
    13:00 +20°C° 0 mm 4 mps 767 mmHg 53%
    14:00 +19°C° 0 mm 4 mps 767 mmHg 54%
    15:00 +19°C° 0 mm 4 mps 767 mmHg 54%
    16:00 +18°C° 0 mm 4 mps 767 mmHg 54%
    17:00 +17°C° 0 mm 3 mps 767 mmHg 60%
    18:00 +16°C° 0 mm 3 mps 767 mmHg 65%
    19:00 +15°C° 0 mm 2 mps 767 mmHg 71%
    20:00 +14°C° 0 mm 2 mps 767 mmHg 76%
    21:00 +13°C° 0 mm 1 mps 767 mmHg 80%
    22:00 +11°C° 0 mm 1 mps 767 mmHg 85%
    23:00 +11°C° 0 mm 1 mps 767 mmHg 86%

    23 June, Sunday

    Time Temperature Precipitation Wind Pressure Humidity
    00:00 +11°C° 0 mm 1 mps 767 mmHg 87%
    01:00 +10°C° 0 mm 1 mps 767 mmHg 87%
    02:00 +10°C° 0 mm 1 mps 767 mmHg 87%
    03:00 +11°C° 0 mm 1 mps 767 mmHg 88%
    04:00 +11°C° 0 mm 1 mps 768 mmHg 88%
    05:00 +13°C° 0 mm 1 mps 768 mmHg 80%
    06:00 +15°C° 0 mm 1 mps 768 mmHg 73%
    07:00 +18°C° 0 mm 1 mps 768 mmHg 66%
    08:00 +20°C° 0 mm 1 mps 768 mmHg 58%
    09:00 +21°C° 0 mm 1 mps 768 mmHg 50%
    10:00 +21°C° 0 mm 2 mps 768 mmHg 42%
    11:00 +23°C° 0 mm 2 mps 769 mmHg 42%
    12:00 +22°C° 0 mm 3 mps 769 mmHg 42%
    13:00 +22°C° 0 mm 4 mps 769 mmHg 42%
    14:00 +22°C° 0 mm 4 mps 769 mmHg 44%
    15:00 +21°C° 0 mm 4 mps 769 mmHg 46%
    16:00 +21°C° 0 mm 5 mps 768 mmHg 49%
    17:00 +20°C° 0 mm 4 mps 769 mmHg 56%
    18:00 +19°C° 0 mm 4 mps 769 mmHg 63%
    19:00 +17°C° 0 mm 4 mps 769 mmHg 69%
    20:00 +16°C° 0 mm 3 mps 769 mmHg 75%
    21:00 +13°C° 0 mm 3 mps 769 mmHg 80%
    22:00 +12°C° 0 mm 3 mps 770 mmHg 85%
    23:00 +12°C° 0 mm 2 mps 770 mmHg 86%

    24 June, Monday

    Time Temperature Precipitation Wind Pressure Humidity
    00:00 +12°C° 0 mm 2 mps 770 mmHg 87%
    01:00 +12°C° 0 mm 2 mps 770 mmHg 88%
    02:00 +12°C° 0 mm 2 mps 770 mmHg 89%
    03:00 +12°C° 0 mm 2 mps 770 mmHg 89%
    04:00 +13°C° 0 mm 2 mps 770 mmHg 90%
    05:00 +15°C° 0 mm 2 mps 770 mmHg 84%
    06:00 +17°C° 0 mm 2 mps 771 mmHg 78%
    07:00 +19°C° 0 mm 3 mps 771 mmHg 71%
    08:00 +21°C° 0 mm 3 mps 771 mmHg 64%
    09:00 +22°C° 0 mm 4 mps 771 mmHg 57%
    10:00 +23°C° 0 mm 4 mps 771 mmHg 50%
    11:00 +25°C° 0 mm 4 mps 771 mmHg 49%
    12:00 +25°C° 0 mm 5 mps 771 mmHg 48%
    13:00 +25°C° 0 mm 5 mps 771 mmHg 47%
    14:00 +25°C° 0 mm 5 mps 771 mmHg 49%
    15:00 +25°C° 0 mm 5 mps 771 mmHg 50%
    16:00 +23°C° 0 mm 5 mps 771 mmHg 52%
    17:00 +22°C° 0 mm 5 mps 771 mmHg 59%
    18:00 +20°C° 0 mm 4 mps 771 mmHg 66%
    19:00 +19°C° 0 mm 4 mps 771 mmHg 73%
    20:00 +18°C° 0 mm 4 mps 771 mmHg 78%
    21:00 +16°C° 0 mm 3 mps 772 mmHg 83%
    22:00 +14°C° 0 mm 3 mps 772 mmHg 88%
    23:00 +14°C° 0 mm 3 mps 772 mmHg 89%

    25 June, Tuesday

    Time Temperature Precipitation Wind Pressure Humidity
    00:00 +13°C° 0 mm 3 mps 772 mmHg 90%
    01:00 +13°C° 0 mm 3 mps 772 mmHg 91%
    02:00 +14°C° 0 mm 2 mps 772 mmHg 90%
    03:00 +14°C° 0 mm 2 mps 772 mmHg 89%
    04:00 +14°C° 0 mm 2 mps 772 mmHg 89%
    05:00 +17°C° 0 mm 2 mps 772 mmHg 83%
    06:00 +19°C° 0 mm 3 mps 772 mmHg 77%
    07:00 +21°C° 0 mm 3 mps 772 mmHg 71%
    08:00 +22°C° 0 mm 3 mps 772 mmHg 65%
    09:00 +23°C° 0 mm 4 mps 773 mmHg 60%
    10:00 +25°C° 0 mm 4 mps 773 mmHg 55%
    11:00 +26°C° 0 mm 4 mps 772 mmHg 53%
    12:00 +26°C° 0 mm 5 mps 772 mmHg 52%
    13:00 +27°C° 0 mm 5 mps 772 mmHg 50%
    14:00 +26°C° 0 mm 5 mps 772 mmHg 51%
    15:00 +26°C° 0 mm 5 mps 772 mmHg 53%
    16:00 +25°C° 0 mm 5 mps 772 mmHg 54%
    17:00 +23°C° 0 mm 5 mps 772 mmHg 60%
    18:00 +22°C° 0 mm 4 mps 771 mmHg 67%
    19:00 +20°C° 0 mm 4 mps 771 mmHg 73%
    20:00 +19°C° 0 mm 4 mps 772 mmHg 76%
    21:00 +17°C° 0 mm 4 mps 772 mmHg 79%
    22:00 +16°C° 0 mm 3 mps 772 mmHg 81%
    23:00 +14°C° 0 mm 3 mps 772 mmHg 81%
    Show more